sat.trackr.live / text

‹ back to catalog

STARLINK-5524

NORAD 56474 · 2023-064AC

PAYLOAD ACTIVE UNKNOWN

§ Identity

Operator
Country
US
Launch date
2023-05-10
Launch site
AFWTR
Launch vehicle
Mass (kg)
RCS (m²)

Purposes: comms

External: N2YO · Heavens-Above · Gunter

§ Orbital elements

Epoch: 2026-09-20T22:00:03.000096Z

Period
95.66 min
Inclination
70.0012°
Eccentricity
0.0003694
Mean motion
15.05299863 rev/d
Perigee alt
548.0 km
Apogee alt
553.1 km
Semi-major
6,928.7 km
B*
-1.5143e-4
RAAN
352.2987°
Arg perigee
240.7512°
Mean anomaly
8.5517°
Rev number
576

§ Raw data

STARLINK-55241 56474U 23064AC  26263.91670139 -.00002270  00000+0 -15143-3 0  99952 56474  70.0012 352.2987 0003694 240.7512   8.5517 15.05299863  5769

JSON: /api/v1/satellites/56474 · /tle

For live sub-satellite position, see the globe view (requires WebGL).

§ Visibility from observer

Set your observer location to see the next 7 days of passes ≥ 10°. The values pass through the URL so the page stays shareable.

No JS? Fill the form by hand. The geolocation button needs JavaScript.